Location: La Silve
(44.2414°N, 5.8889°E)
Time: 08:08:54
(UTC+00:00)

CENTAUR R/B - Pass Details

Date: 20 April 2021
Orbit: 742 x 1446 km, 63.4° (Epoch: 18 April)

Event Time Altitude Azimuth Distance (km) Brightness Sun altitude
Rises 18:55:33 0° 317° (NW) 4,255 7.2 -5.6°
Reaches altitude 10° 18:58:29 10° 310° (NW) 3,364 6.8 -6.1°
Maximum altitude 19:06:00 38° 247° (WSW) 2,031 4.6 -7.3°
Drops below altitude 10° 19:13:56 10° 183° (S) 3,552 5.2 -8.6°
Sets 19:17:08 0° 176° (S) 4,514 5.7 -9.1°
